User: anonymous   Login
Location: Unspecified
(0.0000°N, 0.0000°E)
Time: 09:15:08
(UTC+00:00)
Language:

APRIZESAT 7 - Orbit

View from above orbital plane
View from above orbital plane
View from above satellite
View from above satellite

Ground track
Ground track

The orbit data is extracted from the following two-line orbital elements,

1 39416U 13066A   17086.89849749 +.00000178 +00000-0 +27443-4 0  9999
2 39416 097.6446 140.4966 0041977 158.1588 202.1428 14.83669453181148
Epoch (UTC): 27 March 2017 21:33:50
Eccentricity: 0.0041977
inclination: 97.6446°
perigee height: 588 km
apogee height: 647 km
right ascension of ascending node: 140.4966°
argument of perigee: 158.1588°
revolutions per day: 14.83669453
mean anomaly at epoch: 202.1428°
orbit number at epoch: 18114

The dashed part of the orbit path shows where the satellite is in the earth's shadow,  

DLR